Wind_Speed
68 66 61 56 56 56 51 46 42 40 35 31 29 24 23 23 23 21 20 20 18 17 19 21 21 21 22 23 22 19 19 20 21 22 23 23 23 23 22 21 21 22 26 28 30 36 38 33 39 48 54 57 64 76
61 57 53 52 53 48 43 39 37 35 31 28 25 19 19 19 16 15 17 16 16 17 18 17 17 19 18 18 20 21 20 16 13 14 17 20 22 23 22 26 29 30 28 28 30 33 35 36 40 46 52 54 58 68
55 51 50 51 46 40 38 35 33 31 28 24 21 16 16 14 13 16 15 12 13 14 12 14 17 16 17 19 19 18 17 19 21 23 21 20 18 19 20 24 26 28 31 33 32 33 35 35 38 41 47 51 57 60
49 48 49 44 38 36 33 32 30 27 25 21 17 13 13 11 12 12 11 11 12 13 14 15 18 20 20 19 19 20 20 20 21 22 23 24 26 23 24 24 25 25 26 28 33 35 33 33 34 37 43 47 52 56
46 46 40 37 34 31 31 29 26 26 23 18 13 13 11 10 10 10 11 12 13 14 15 14 14 16 18 19 20 22 23 23 23 23 22 21 22 24 25 25 25 24 25 26 29 31 29 30 33 34 37 43 49 53
38 36 36 32 30 29 29 26 26 26 23 18 15 14 12 13 14 15 14 14 14 14 13 14 15 17 19 20 22 22 23 22 21 21 21 21 22 22 22 22 22 25 27 28 29 31 31 30 33 33 37 41 42 45
33 33 30 28 28 28 28 26 26 25 23 19 17 16 15 17 15 9 13 14 15 15 16 17 19 20 21 22 21 21 21 22 20 20 20 20 21 22 23 24 26 27 28 27 28 26 27 30 31 32 37 38 39 41
28 27 26 27 28 28 26 26 26 25 23 20 19 18 17 14 15 17 17 17 17 18 19 20 19 20 21 20 20 19 20 20 19 19 20 20 21 23 26 24 23 24 26 27 27 27 27 28 31 33 35 37 37 40
24 26 28 27 27 27 27 27 25 24 22 18 18 17 16 18 17 17 15 15 17 19 19 20 18 17 20 24 25 23 22 22 21 20 20 22 23 24 19 17 18 20 23 25 29 30 30 32 32 32 34 35 36 39
26 26 26 26 26 26 26 25 24 22 17 14 17 20 24 18 17 17 17 14 14 15 16 18 19 16 16 19 19 20 20 20 20 20 22 23 22 22 22 20 21 22 25 29 29 30 29 29 30 32 34 35 34 37
21 21 20 21 23 24 25 24 22 18 16 18 20 25 20 15 16 16 17 18 19 20 20 19 19 19 20 20 20 19 18 20 21 21 20 21 20 21 22 20 21 24 25 27 29 29 28 30 31 32 35 36 35 37
15 17 19 22 25 26 26 25 25 23 24 28 27 23 20 16 16 19 20 21 21 19 18 16 18 19 20 19 19 20 19 21 19 17 19 21 22 23 23 24 26 26 27 31 31 30 30 30 31 31 34 34 35 38
18 19 20 21 23 25 26 28 28 27 29 29 24 21 17 20 23 25 29 29 27 22 21 23 21 19 19 20 20 20 20 19 18 18 22 26 27 28 30 29 29 29 31 31 31 30 30 31 31 31 32 33 33 37
16 17 20 22 23 25 27 26 26 28 30 30 23 20 20 21 26 32 36 30 24 22 25 26 26 26 27 27 28 27 28 27 27 28 35 36 33 32 32 30 29 31 32 30 30 33 31 29 30 32 33 34 32 34
14 16 17 18 19 21 23 24 25 27 26 28 26 24 27 30 29 29 21 18 19 21 22 22 22 21 22 23 23 25 27 30 36 41 43 38 35 37 36 38 35 31 25 24 24 27 27 31 34 35 36 36 35 35
15 14 15 15 18 20 21 23 25 26 27 28 27 29 30 28 26 18 16 18 18 17 16 17 17 17 18 19 21 23 24 27 32 29 31 32 30 31 33 36 36 33 29 22 22 24 29 31 38 40 41 40 38 37
17 15 15 17 19 20 20 21 23 25 25 25 24 26 28 23 17 16 16 14 13 14 15 17 18 19 18 21 20 16 16 19 19 19 22 23 23 25 27 28 28 29 28 28 25 21 20 24 35 40 37 35 35 37
18 18 16 16 20 22 24 24 25 24 24 24 23 20 16 14 16 17 17 18 19 19 20 19 18 19 16 15 15 16 16 16 16 16 17 20 21 22 24 25 25 25 24 23 21 22 18 22 25 29 31 33 35 37
19 17 17 17 18 19 22 23 25 25 26 26 24 23 23 23 22 20 18 17 16 15 14 14 13 13 11 9 9 11 12 12 12 13 15 15 16 18 19 20 21 21 21 20 20 20 22 26 30 30 31 33 34 33
22 19 19 19 19 19 19 19 18 20 21 20 20 21 20 20 20 18 17 15 13 12 10 9 8 7 7 9 11 11 10 9 9 10 9 9 11 12 12 13 14 16 18 19 20 22 22 24 28 30 29 30 31 31
24 22 22 22 23 22 21 21 20 20 21 20 20 19 19 18 17 15 14 11 10 9 10 11 12 12 12 11 10 8 7 7 8 9 9 10 11 13 14 14 14 15 16 18 19 20 22 26 27 28 29 28 27 28
24 24 23 23 24 22 21 22 22 22 21 21 21 19 18 17 17 17 16 16 15 14 13 12 10 9 8 7 7 6 6 6 7 8 10 11 12 12 13 14 14 15 16 17 18 19 21 23 25 27 29 29 30 31
23 23 25 25 25 23 24 23 22 21 20 19 18 17 17 16 16 14 14 13 11 10 9 9 9 8 7 8 8 8 9 10 10 10 11 12 13 13 14 14 13 13 14 16 17 19 20 20 22 25 27 29 31 33
21 22 21 20 19 19 19 19 20 18 17 16 15 13 12 12 9 10 10 10 10 10 9 8 8 7 8 9 10 12 12 12 13 14 14 14 15 16 16 16 15 15 16 16 16 17 20 22 24 26 28 30 31 33
17 16 15 15 16 16 15 14 13 12 12 11 10 9 9 10 10 10 10 10 9 9 12 14 15 13 13 16 17 16 16 17 17 17 16 16 15 14 14 15 15 15 15 16 17 18 19 21 23 25 27 28 30 32
12 11 11 12 12 12 11 10 9 10 11 10 11 11 11 12 13 14 15 17 18 18 19 21 22 21 19 19 20 21 21 21 21 21 21 21 20 19 19 19 19 19 20 20 21 22 23 23 25 26 28 29 31 33
9 7 7 7 7 7 8 8 9 9 11 12 12 13 14 15 17 18 19 21 23 24 24 25 24 24 24 24 24 24 24 25 25 25 24 24 23 23 23 23 23 23 24 25 26 27 28 29 30 31 32 34 36 37
6 6 6 6 6 6 7 9 10 11 12 14 16 17 18 19 21 23 23 23 24 24 25 26 27 28 29 29 29 29 29 29 30 30 30 30 31 31 31 31 31 31 32 32 32 33 34 34 36 37 38 39 41 42
3 3 3 2 3 4 5 7 9 10 11 12 14 15 16 19 20 22 23 25 25 26 26 26 27 28 28 29 29 30 30 31 31 32 31 32 33 33 34 35 36 37 37 38 38 39 40 41 42 43 45 46 48 49
9 9 10 10 12 13 13 14 15 17 18 19 20 21 22 24 25 26 27 28 30 31 32 33 34 35 36 37 37 38 38 39 39 40 40 41 41 41 41 42 42 43 43 44 44 44 44 45 46 46 47 48 48 49
16 16 17 18 19 20 22 23 24 24 26 27 28 29 30 31 32 33 34 34 35 36 36 36 37 38 38 39 40 41 42 42 43 43 44 44 44 45 45 45 45 46 46 47 47 48 48 49 49 48 48 48 48 48
23 24 25 26 27 28 29 30 30 31 32 33 33 34 35 35 36 36 36 36 36 36 36 36 36 36 36 36 37 37 38 39 40 41 41 41 42 42 42 42 42 43 43 43 44 44 45 45 45 45 46 46 46 47
29 29 30 31 31 31 32 32 33 33 32 32 31 32 32 32 32 32 33 33 32 32 32 32 33 33 34 35 36 36 37 37 37 37 36 36 36 37 37 37 37 37 38 38 39 40 40 41 41 42 43 43 44 45
Wind_Direction
268 270 272 271 269 272 278 280 279 276 278 282 280 278 277 271 264 261 255 249 243 236 229 224 218 217 219 218 213 207 214 218 216 214 212 214 216 218 217 216 218 216 216 215 214 213 216 208 204 203 205 208 210 212
265 265 266 264 265 271 274 274 270 271 274 273 273 271 270 266 259 248 242 237 232 222 214 208 207 210 214 216 208 197 191 185 193 209 213 215 217 217 213 208 203 200 204 209 212 215 213 208 208 201 204 206 209 214
259 259 257 259 264 265 266 263 263 265 266 267 266 264 266 261 249 242 234 222 217 212 206 203 207 201 199 193 189 189 189 190 186 184 189 195 204 208 215 217 208 204 204 205 204 208 211 212 209 198 204 206 209 212
254 251 253 257 256 257 255 254 254 256 259 258 257 257 256 243 240 236 212 203 201 200 199 190 189 188 188 185 181 181 183 187 193 194 194 193 187 186 191 205 213 215 216 212 207 208 208 208 205 203 207 208 212 214
246 248 250 248 249 248 246 245 245 248 249 246 245 245 240 229 218 207 194 182 185 187 188 192 195 198 197 191 184 184 180 180 181 183 185 192 192 188 195 202 207 206 211 211 210 212 211 206 207 206 209 212 213 217
246 242 240 241 239 237 237 234 236 239 240 237 232 233 222 212 206 197 185 182 184 184 187 194 196 199 189 184 176 175 177 178 177 182 187 193 199 198 200 202 208 210 207 206 209 205 207 204 207 208 213 217 217 218
234 234 233 231 229 228 227 228 232 234 237 233 225 222 216 213 211 191 190 187 182 182 187 190 193 188 185 178 172 176 181 179 179 187 191 197 201 204 205 205 207 209 211 211 213 211 211 212 210 211 214 216 218 220
229 225 222 221 220 221 222 226 231 232 231 224 219 215 216 210 197 196 191 188 185 180 183 184 187 185 181 177 176 180 187 185 186 187 192 199 203 207 210 208 209 211 212 211 214 213 214 218 217 218 219 218 218 220
213 212 214 214 215 218 222 225 224 222 219 213 210 209 213 209 203 198 192 189 190 188 183 183 182 188 186 181 183 187 194 193 193 193 197 203 207 215 214 211 211 213 215 216 217 218 215 216 221 224 227 226 222 224
207 209 212 215 218 220 220 218 217 214 204 187 189 199 212 207 194 194 184 185 178 177 177 180 175 179 196 192 191 197 202 202 203 202 207 212 218 220 219 213 215 217 219 224 222 223 224 223 220 222 227 229 223 225
211 213 213 212 213 215 217 217 216 207 188 190 190 200 208 192 182 186 177 178 180 183 179 178 179 180 181 188 187 194 209 211 210 209 216 220 222 229 234 231 226 232 231 229 232 231 227 228 227 224 228 229 228 228
205 207 208 209 212 215 216 215 214 208 196 198 201 194 195 177 166 173 172 184 196 192 188 187 187 187 187 187 191 197 200 213 214 217 224 225 224 228 231 230 229 221 227 240 238 237 237 236 235 232 230 231 228 229
200 202 203 205 208 210 210 211 213 206 203 206 205 195 178 166 164 170 180 192 200 198 189 200 203 204 205 208 209 212 217 227 232 238 241 241 236 234 236 236 238 237 233 226 235 238 234 239 242 242 238 235 229 231
180 182 185 192 195 196 199 200 201 203 204 208 203 192 181 185 186 187 194 195 193 192 194 200 203 206 209 208 212 213 221 225 227 231 237 241 245 249 250 245 242 243 245 245 234 236 239 236 235 235 237 239 234 234
155 163 174 178 180 185 186 186 187 191 194 200 200 191 195 201 204 208 200 193 188 199 209 213 215 218 220 225 221 224 226 222 227 233 240 245 250 258 262 262 265 269 266 250 240 238 235 231 232 234 235 236 235 234
133 143 151 157 165 171 175 175 177 179 181 191 193 193 203 212 219 214 205 207 210 217 222 230 240 243 243 245 240 237 237 236 235 242 247 250 250 247 244 245 250 256 259 254 229 231 238 236 228 228 228 228 229 230
120 125 138 142 147 152 158 165 171 174 177 183 188 194 203 208 212 220 226 223 220 230 238 242 245 245 245 248 253 255 258 253 253 252 247 252 259 260 259 258 253 251 255 258 258 247 233 231 231 233 236 232 229 229
121 121 122 133 146 147 151 156 165 169 172 177 181 186 191 178 190 199 205 209 216 223 231 238 243 245 248 252 255 255 256 256 256 254 249 249 253 258 260 263 263 261 261 257 249 236 237 212 215 227 232 230 231 231
119 121 125 132 136 142 152 155 157 161 162 163 166 171 177 179 182 190 192 198 204 209 212 215 218 219 221 229 247 254 254 251 248 248 248 251 257 259 261 260 259 260 261 258 244 238 231 223 220 219 225 235 241 240
110 114 120 124 130 135 139 147 151 151 155 157 157 158 161 166 172 173 176 180 181 184 188 197 201 204 209 218 225 224 226 231 239 240 245 252 255 255 253 251 252 253 251 248 246 239 231 225 223 229 235 238 238 242
109 113 119 124 124 126 129 131 135 139 142 146 145 148 153 155 158 159 162 167 169 174 180 185 188 194 193 199 206 212 218 233 248 261 267 265 265 265 264 261 258 254 251 250 244 239 238 238 239 238 240 238 241 247
112 114 116 116 115 117 123 125 128 132 137 141 144 146 144 146 153 158 165 168 172 174 174 174 180 187 191 198 208 219 229 232 240 255 265 271 275 274 268 260 256 253 249 247 249 247 245 244 246 245 245 246 248 249
121 121 119 118 120 122 123 124 127 128 130 132 136 140 145 149 152 153 156 156 162 169 171 176 179 187 203 214 217 221 235 249 256 251 255 265 274 279 278 273 264 256 249 243 243 243 245 247 246 245 245 245 246 248
126 125 126 128 131 131 133 134 136 135 136 138 136 136 141 148 155 165 175 178 179 182 188 195 196 200 218 222 233 243 246 251 254 258 261 264 264 261 263 267 270 269 265 258 252 249 246 243 243 244 248 251 253 256
131 132 134 135 138 140 142 146 149 152 152 154 158 166 170 177 189 197 203 205 210 220 219 210 218 237 243 238 235 239 246 252 257 261 265 267 273 270 267 267 268 269 266 264 258 253 250 250 250 250 251 254 256 258
132 137 140 146 151 156 159 159 164 177 184 189 197 203 207 210 211 218 222 222 219 220 219 224 235 243 244 247 251 254 258 260 263 265 267 271 272 273 276 278 278 275 274 272 270 269 266 263 261 261 262 264 265 266
139 136 145 152 158 170 182 199 209 211 212 218 226 231 232 230 233 237 240 241 244 248 250 252 254 255 258 262 263 265 268 272 276 278 279 279 279 279 280 280 282 282 283 283 282 279 276 274 272 271 271 271 272 272
141 143 151 169 177 188 200 210 216 220 227 233 240 245 247 247 248 253 255 258 260 263 265 267 269 271 272 273 273 273 274 275 277 278 279 278 278 278 279 279 280 280 280 279 278 278 277 276 274 274 274 274 275 275
153 156 173 209 224 227 234 239 243 246 249 252 256 259 262 263 265 268 271 274 276 277 278 278 278 278 278 278 278 278 278 278 277 277 277 276 276 276 275 275 276 276 276 275 275 274 273 273 273 274 274 275 276 277
244 254 257 259 259 258 260 262 267 268 269 271 272 273 274 275 274 273 273 273 272 272 272 273 273 273 274 274 274 275 275 275 275 275 275 276 277 277 278 278 279 279 280 280 280 279 279 279 279 280 281 281 282 283
260 263 266 268 270 269 270 273 275 277 278 279 279 279 279 279 279 277 277 276 275 274 274 274 274 274 273 273 272 273 273 274 274 275 275 276 276 276 277 278 279 280 280 281 282 283 284 284 285 286 286 286 286 286
275 276 277 278 278 279 279 280 281 280 280 280 280 280 280 281 281 280 280 281 281 282 282 282 281 281 279 277 276 275 274 274 274 275 275 276 277 278 279 279 280 281 281 282 282 282 283 283 283 284 284 285 285 285
277 278 278 278 279 280 280 281 282 284 284 284 285 285 284 284 284 284 283 283 283 282 282 280 279 278 277 277 277 277 279 280 281 282 282 283 283 283 283 282 282 282 282 282 282 282 282 282 282 283 283 283 284 285
Height
10091 10093 10096 10098 10097 10096 10097 10097 10096 10095 10094 10093 10094 10096 10094 10092 10092 10093 10094 10094 10095 10098 10101 10103 10106 10109 10112 10117 10123 10129 10136 10141 10148 10153 10158 10163 10169 10174 10181 10189 10196 10201 10207 10213 10220 10224 10230 10248 10256 10263 10271 10283 10295 10307
10074 10077 10081 10082 10082 10084 10085 10086 10086 10085 10085 10086 10087 10089 10088 10087 10088 10087 10087 10089 10092 10094 10097 10099 10103 10107 10112 10117 10121 10126 10132 10139 10146 10152 10156 10162 10166 10172 10178 10182 10186 10191 10199 10206 10212 10219 10226 10236 10243 10253 10263 10276 10288 10299
10058 10063 10066 10067 10070 10073 10074 10076 10076 10076 10078 10080 10081 10082 10082 10082 10083 10083 10085 10087 10088 10091 10094 10099 10104 10108 10112 10115 10120 10126 10131 10136 10141 10145 10151 10157 10165 10170 10175 10180 10184 10189 10193 10197 10206 10212 10219 10226 10235 10246 10257 10267 10276 10287
10044 10048 10051 10055 10058 10061 10064 10066 10067 10069 10072 10074 10075 10077 10078 10078 10079 10080 10082 10084 10087 10091 10094 10099 10101 10104 10110 10115 10119 10124 10128 10133 10139 10144 10148 10152 10157 10166 10171 10175 10180 10185 10191 10196 10200 10204 10213 10222 10230 10240 10247 10258 10267 10276
10029 10033 10039 10043 10047 10051 10055 10057 10059 10062 10065 10068 10070 10072 10074 10075 10077 10078 10080 10083 10086 10090 10093 10097 10102 10106 10109 10114 10118 10123 10128 10132 10137 10142 10147 10153 10158 10162 10167 10172 10176 10183 10187 10193 10198 10203 10211 10219 10225 10234 10242 10248 10256 10264
10018 10023 10028 10032 10037 10042 10045 10048 10052 10055 10058 10062 10065 10068 10071 10072 10073 10075 10078 10081 10084 10088 10093 10097 10103 10107 10111 10114 10118 10122 10126 10132 10137 10142 10147 10152 10157 10160 10165 10170 10174 10178 10182 10187 10192 10198 10203 10213 10219 10226 10232 10238 10247 10255
10007 10013 10018 10022 10028 10032 10036 10041 10046 10050 10053 10057 10060 10064 10067 10069 10073 10079 10080 10081 10084 10089 10094 10099 10103 10106 10111 10114 10118 10122 10127 10131 10136 10141 10146 10151 10155 10158 10162 10165 10170 10174 10179 10185 10190 10198 10203 10207 10215 10221 10225 10231 10240 10247
9999 10005 10009 10014 10019 10024 10030 10035 10040 10043 10047 10051 10056 10061 10064 10069 10072 10074 10077 10082 10086 10089 10093 10098 10102 10106 10109 10114 10118 10123 10127 10131 10136 10140 10145 10148 10151 10154 10156 10163 10169 10174 10178 10183 10188 10194 10200 10205 10209 10214 10219 10225 10232 10236
9992 9997 10002 10008 10013 10018 10023 10028 10033 10036 10041 10047 10053 10059 10062 10065 10070 10073 10078 10082 10085 10089 10093 10097 10101 10106 10109 10112 10117 10121 10125 10130 10134 10138 10142 10145 10147 10150 10159 10165 10170 10174 10178 10181 10183 10187 10193 10196 10203 10209 10213 10217 10224 10228
9986 9991 9996 10002 10007 10011 10017 10022 10027 10032 10039 10047 10052 10055 10055 10061 10070 10073 10077 10082 10087 10091 10094 10098 10102 10106 10111 10114 10118 10121 10125 10128 10132 10137 10139 10142 10146 10150 10154 10160 10163 10167 10171 10173 10178 10182 10188 10194 10198 10201 10204 10207 10215 10219
9982 9987 9993 9998 10002 10006 10012 10018 10023 10030 10039 10044 10047 10049 10053 10060 10068 10072 10077 10081 10084 10087 10092 10096 10101 10104 10109 10113 10116 10120 10123 10126 10129 10133 10136 10140 10144 10147 10150 10156 10160 10162 10165 10168 10171 10176 10181 10185 10189 10193 10195 10199 10206 10210
9980 9985 9989 9993 9997 10002 10008 10014 10019 10026 10034 10036 10040 10047 10053 10060 10068 10073 10077 10080 10082 10087 10092 10096 10100 10104 10108 10112 10115 10118 10121 10123 10127 10132 10133 10135 10138 10140 10143 10147 10150 10155 10159 10160 10164 10169 10173 10177 10180 10185 10187 10191 10195 10198
9977 9981 9985 9989 9993 9998 10003 10008 10013 10022 10027 10032 10039 10047 10055 10061 10065 10071 10073 10075 10079 10084 10091 10094 10097 10102 10106 10109 10112 10115 10117 10120 10124 10127 10127 10127 10131 10134 10135 10139 10141 10145 10148 10152 10155 10159 10164 10168 10172 10176 10179 10182 10187 10189
9975 9979 9982 9985 9989 9993 9998 10003 10010 10016 10023 10029 10039 10048 10054 10058 10061 10062 10064 10073 10079 10085 10089 10093 10097 10100 10102 10106 10109 10112 10115 10117 10119 10120 10117 10117 10121 10126 10128 10130 10135 10137 10139 10143 10148 10150 10154 10158 10161 10164 10167 10171 10176 10180
9973 9976 9979 9983 9987 9991 9996 10001 10007 10013 10020 10028 10034 10044 10047 10049 10054 10058 10068 10074 10080 10082 10085 10089 10092 10096 10100 10102 10105 10108 10109 10111 10110 10106 10105 10112 10115 10117 10120 10121 10124 10126 10131 10134 10139 10142 10145 10148 10151 10153 10157 10161 10165 10168
9975 9978 9980 9985 9988 9992 9997 10001 10006 10013 10018 10024 10031 10039 10044 10048 10052 10061 10066 10071 10075 10079 10082 10084 10086 10089 10091 10092 10094 10095 10098 10099 10100 10103 10103 10104 10107 10108 10110 10112 10114 10116 10119 10121 10127 10131 10134 10136 10139 10141 10145 10149 10154 10158
9979 9981 9984 9987 9990 9994 9998 10003 10008 10013 10019 10024 10029 10036 10040 10044 10053 10058 10062 10066 10069 10072 10074 10076 10078 10080 10082 10083 10085 10087 10089 10091 10094 10096 10097 10097 10099 10100 10101 10103 10106 10108 10111 10112 10116 10120 10123 10126 10129 10132 10136 10141 10144 10147
9983 9986 9989 9991 9994 9997 10000 10004 10009 10014 10019 10024 10029 10035 10041 10048 10052 10055 10058 10061 10065 10067 10069 10070 10073 10075 10077 10079 10081 10082 10084 10086 10088 10089 10091 10092 10093 10094 10095 10096 10097 10099 10102 10105 10107 10111 10114 10117 10120 10123 10125 10129 10133 10136
9988 9991 9993 9996 9998 10001 10004 10008 10012 10016 10020 10025 10030 10035 10039 10043 10048 10051 10055 10058 10061 10064 10066 10069 10071 10073 10075 10076 10078 10080 10081 10082 10084 10085 10086 10087 10088 10089 10090 10091 10092 10093 10095 10097 10100 10102 10104 10107 10111 10114 10118 10121 10124 10126
9995 9997 10000 10002 10005 10008 10011 10014 10017 10021 10024 10029 10033 10036 10040 10044 10047 10050 10053 10056 10059 10061 10064 10066 10068 10070 10072 10075 10076 10077 10078 10079 10080 10081 10082 10082 10083 10084 10084 10085 10086 10087 10088 10089 10091 10093 10095 10098 10102 10106 10108 10111 10113 10115
10003 10005 10007 10009 10011 10014 10016 10019 10022 10025 10029 10033 10036 10039 10042 10045 10048 10051 10054 10056 10059 10062 10064 10067 10069 10070 10072 10072 10073 10074 10075 10076 10076 10077 10077 10078 10078 10078 10079 10079 10080 10081 10082 10084 10085 10086 10089 10091 10093 10096 10098 10100 10102 10103
10011 10013 10015 10016 10018 10020 10024 10026 10028 10031 10034 10037 10039 10042 10044 10047 10050 10053 10056 10059 10061 10063 10064 10066 10067 10068 10069 10071 10072 10073 10073 10074 10074 10075 10075 10075 10074 10074 10074 10074 10074 10075 10076 10077 10078 10080 10081 10083 10085 10087 10089 10091 10092 10094
10019 10021 10022 10024 10026 10029 10030 10033 10036 10038 10040 10042 10045 10047 10049 10052 10054 10056 10057 10059 10060 10062 10064 10065 10066 10068 10069 10069 10070 10071 10071 10072 10072 10072 10072 10072 10071 10070 10070 10069 10069 10069 10070 10071 10071 10073 10074 10076 10077 10079 10080 10081 10082 10083
10026 10027 10029 10031 10033 10034 10037 10038 10040 10042 10044 10046 10048 10050 10052 10054 10055 10057 10058 10059 10061 10062 10064 10065 10066 10067 10067 10068 10068 10069 10069 10069 10068 10068 10068 10068 10067 10067 10067 10066 10065 10065 10065 10065 10065 10066 10067 10068 10069 10070 10071 10072 10073 10074
10032 10033 10034 10035 10037 10039 10040 10042 10043 10045 10046 10048 10050 10052 10053 10055 10057 10058 10059 10061 10062 10063 10064 10064 10065 10065 10065 10064 10064 10064 10064 10064 10064 10063 10063 10063 10062 10062 10062 10062 10061 10061 10060 10060 10060 10060 10061 10061 10061 10062 10062 10062 10063 10063
10035 10036 10038 10039 10040 10042 10043 10045 10046 10047 10048 10050 10051 10052 10054 10055 10056 10057 10058 10059 10060 10060 10061 10061 10061 10061 10061 10060 10060 10059 10059 10059 10059 10059 10058 10058 10057 10057 10056 10056 10055 10054 10054 10054 10054 10054 10053 10053 10053 10053 10053 10052 10052 10051
10038 10039 10041 10042 10043 10044 10045 10046 10047 10048 10049 10050 10051 10052 10053 10053 10054 10055 10055 10056 10056 10056 10056 10056 10055 10055 10054 10054 10054 10053 10053 10052 10052 10052 10051 10051 10050 10050 10049 10049 10048 10047 10047 10046 10045 10044 10044 10044 10043 10043 10042 10041 10040 10039
10040 10041 10042 10043 10044 10044 10045 10046 10047 10047 10048 10049 10049 10049 10049 10049 10050 10050 10050 10050 10050 10049 10049 10048 10048 10047 10047 10047 10046 10046 10045 10045 10044 10043 10042 10042 10041 10041 10040 10039 10038 10038 10037 10036 10035 10034 10033 10032 10031 10030 10029 10028 10027 10025
10042 10042 10043 10043 10044 10045 10045 10046 10046 10046 10047 10047 10046 10046 10046 10046 10046 10045 10045 10044 10043 10042 10042 10041 10040 10039 10038 10037 10037 10036 10035 10034 10033 10032 10031 10030 10029 10029 10028 10027 10026 10025 10024 10023 10022 10021 10020 10019 10018 10016 10015 10014 10012 10010
10042 10042 10043 10043 10044 10044 10044 10044 10043 10043 10042 10042 10041 10040 10040 10039 10038 10038 10037 10036 10035 10034 10032 10031 10030 10029 10028 10026 10025 10024 10022 10021 10020 10019 10018 10017 10016 10015 10014 10013 10012 10010 10009 10008 10006 10005 10004 10002 10001 9999 9998 9997 9995 9993
10039 10039 10039 10039 10039 10039 10038 10038 10037 10036 10035 10034 10033 10032 10030 10029 10028 10026 10025 10024 10022 10021 10020 10019 10018 10017 10015 10014 10012 10010 10009 10007 10006 10005 10003 10002 10001 10000 9999 9997 9996 9994 9993 9992 9990 9989 9987 9985 9984 9982 9981 9980 9978 9976
10033 10032 10032 10031 10031 10030 10029 10028 10027 10026 10024 10023 10021 10020 10019 10017 10015 10014 10012 10011 10010 10008 10007 10006 10004 10002 10001 9999 9997 9995 9994 9992 9991 9990 9988 9988 9986 9985 9984 9983 9982 9980 9979 9977 9975 9973 9971 9970 9968 9967 9965 9963 9961 9959
10025 10024 10023 10022 10021 10020 10019 10017 10016 10015 10013 10012 10010 10008 10007 10005 10003 10002 10000 9999 9997 9996 9995 9993 9991 9989 9987 9985 9983 9982 9980 9979 9978 9977 9976 9974 9973 9972 9970 9969 9968 9966 9965 9963 9961 9959 9957 9955 9953 9952 9950 9948 9945 9943